Location: Chena
(64.8152°N, 147.9227°W)
Time: 17:05:59
(UTC+00:00)

Envisat - Visible Passes

Search period start: 22 January 2021 00:00
Search period end: 01 February 2021 00:00
Orbit: 764 x 766 km, 98.1° (Epoch: 22 January)

Date Brightness Start Highest point End Pass type
(mag) Time Alt. Az. Time Alt. Az. Time Alt. Az.
22 Jan 3.9 02:47:48 10° S 02:52:47 53° W 02:57:48 10° NNW visible
22 Jan 6.0 04:29:55 10° WSW 04:33:00 16° WNW 04:36:05 10° NW visible
22 Jan 5.1 14:44:05 10° NNE 14:48:22 26° E 14:52:38 10° SE visible
22 Jan 3.0 16:22:57 10° NNE 16:28:06 88° ESE 16:33:13 10° SSW visible
22 Jan 3.7 18:02:16 10° NNE 18:06:46 32° NW 18:11:14 10° WSW visible
23 Jan 3.1 02:10:43 10° SSE 02:15:49 84° WSW 02:20:58 10° NNW visible
23 Jan 5.4 03:51:26 10° SW 03:55:35 25° W 03:59:46 10° NNW visible
23 Jan 5.8 14:07:44 10° NE 14:11:00 17° E 14:14:15 10° ESE visible
23 Jan 3.7 15:46:07 10° NNE 15:51:09 57° ESE 15:56:10 10° S visible
23 Jan 3.3 17:25:20 10° NNE 17:30:12 46° NW 17:35:02 10° SW visible
24 Jan 4.6 03:13:37 10° SSW 03:18:23 39° W 03:23:10 10° NNW visible
24 Jan 6.3 04:57:21 10° W 04:58:54 11° WNW 05:00:28 10° NW visible
24 Jan 6.3 13:32:44 10° ENE 13:33:27 10° ENE 13:34:10 10° E visible
24 Jan 4.6 15:09:21 10° NNE 15:14:04 36° E 15:18:44 10° SSE visible
24 Jan 2.9 16:48:25 10° NNE 16:53:29 69° WNW 16:58:33 10° SW visible
25 Jan 3.7 02:36:16 10° S 02:41:19 61° WSW 02:46:23 10° NNW visible
25 Jan 5.9 04:17:55 10° SW 04:21:23 18° W 04:24:53 10° NW visible
25 Jan 5.4 14:32:47 10° NNE 14:36:49 23° E 14:40:49 10° SE visible
25 Jan 3.1 16:11:31 10° NNE 16:16:40 78° ESE 16:21:46 10° SSW visible
25 Jan 3.6 17:50:49 10° NNE 17:55:26 36° NW 18:00:02 10° WSW visible
26 Jan 5.2 03:39:40 10° SSW 03:44:02 28° W 03:48:27 10° NNW visible
26 Jan 6.0 13:56:35 10° NE 13:59:23 15° ENE 14:02:11 10° ESE visible
26 Jan 4.0 15:34:42 10° NNE 15:39:41 49° E 15:44:37 10° S visible
26 Jan 3.1 17:13:53 10° NNE 17:18:50 52° WNW 17:23:45 10° SW visible
27 Jan 4.3 03:02:00 10° S 03:06:52 44° W 03:11:46 10° NNW visible
27 Jan 6.1 04:44:54 10° WSW 04:47:16 13° WNW 04:49:38 10° NW visible
27 Jan 4.8 14:57:59 10° NNE 15:02:32 31° E 15:07:03 10° SSE visible
27 Jan 2.9 16:36:58 10° NNE 16:42:06 78° WNW 16:47:11 10° SSW visible
28 Jan 3.4 02:24:46 10° S 02:29:51 70° WSW 02:34:58 10° NNW visible
28 Jan 5.7 04:06:00 10° SW 04:09:48 21° W 04:13:37 10° NW visible
28 Jan 5.6 14:21:29 10° NE 14:25:14 20° E 14:28:58 10° SE visible
28 Jan 3.4 16:00:06 10° NNE 16:05:13 68° ESE 16:10:18 10° S visible
28 Jan 3.5 17:39:22 10° NNE 17:44:05 40° NW 17:48:49 10° WSW visible
29 Jan 5.0 03:27:57 10° SSW 03:32:30 32° W 03:37:06 10° NNW visible
29 Jan 6.1 13:45:33 10° NE 13:47:45 13° ENE 13:49:58 10° E visible
29 Jan 4.2 15:23:18 10° NNE 15:28:11 43° E 15:33:02 10° S visible
29 Jan 3.0 17:02:26 10° NNE 17:07:27 58° WNW 17:12:26 10° SW visible
30 Jan 4.1 02:50:25 10° S 02:55:23 51° W 03:00:22 10° NNW visible
30 Jan 6.1 04:32:44 10° WSW 04:35:38 15° WNW 04:38:34 10° NW visible
30 Jan 5.1 14:46:39 10° NNE 14:51:00 27° E 14:55:19 10° SSE visible
30 Jan 3.0 16:25:32 10° NNE 16:30:40 88° WNW 16:35:47 10° SSW visible
31 Jan 5.5 03:54:09 10° SW 03:58:14 24° W 04:02:19 10° NNW visible
31 Jan 5.8 14:10:14 10° NE 14:13:38 18° E 14:17:02 10° ESE visible
31 Jan 3.6 15:48:41 10° NNE 15:53:45 59° ESE 15:58:47 10° S visible
31 Jan 3.3 17:27:55 10° NNE 17:32:45 44° NW 17:37:34 10° SW visible
